Weather History for Canadian, TX

Change the Weather History Date:

Friday, November 4, 2011

  Actual Average (KPPA) Record (KPPA)
Temperature  
Mean Temperature 46 °F -  
Max Temperature 60 °F 59 °F 82 °F (1988)
Min Temperature 32 °F 34 °F 9 °F (1991)
Degree Days  
Heating Degree Days 19    
Moisture  
Dew Point 20 °F    
Average Humidity 39    
Maximum Humidity 64    
Minimum Humidity 22    
Precipitation  
Precipitation 0.00 in - - ()
Sea Level Pressure  
Sea Level Pressure 30.09 in    
Wind  
Wind Speed 7 mph (South)    
Max Wind Speed 23 mph    
Max Gust Speed 30 mph    
Visibility 10 miles    
Events      
Averages and records for this station are not official NWS values.
T = Trace of Precipitation, MM = Missing Value Source: NWS Daily Summary

Daily Weather History Graph

Daily Weather History Graph

Search for Another Location

Airport:

Trip Planner

Search our weather history database for the weather conditions in past years. The results will help you decide how hot, cold, wet, or windy it might be!

Date:

Astronomy

Nov. 04, 2011 Rise Set
Actual Time 8:06 AM CDT 6:43 PM CDT
Civil Twilight 7:40 AM CDT 7:09 PM CDT
Nautical Twilight 7:09 AM CDT 7:40 PM CDT
Astronomical Twilight 6:39 AM CDT 8:10 PM CDT
Moon 3:26 PM CDT (11/4) 2:31 AM CDT (11/4)
Length of Visible Light 11h 29m
Length of Day
10h 36m
Waxing Gibbous, 69% of the Moon is Illuminated
Nov 4
Waxing Gibbous
Nov 10
Full
Nov 18
Last Quarter
Nov 25
New
Dec 2
First Quarter

Hourly Weather History & Observations

Time (CDT) Temp. Windchill Dew Point Humidity Pressure Visibility Wind Dir Wind Speed Gust Speed Precip Events Conditions
12:15 AM 33.8 °F - 19.4 °F 56% 30.22 in 10.0 mi Calm Calm - N/A   Clear
12:35 AM 33.8 °F - 19.4 °F 56% 30.22 in 10.0 mi Calm Calm - N/A   Clear
12:55 AM 33.8 °F - 19.4 °F 56% 30.22 in 10.0 mi Calm Calm - N/A   Clear
1:55 AM 32.0 °F 28.7 °F 19.4 °F 60% 30.20 in 10.0 mi WSW 3.5 mph - N/A   Clear
2:15 AM 33.8 °F 29.6 °F 19.4 °F 56% 30.20 in 10.0 mi WSW 4.6 mph - N/A   Clear
2:35 AM 33.8 °F - 19.4 °F 56% 30.20 in 10.0 mi Calm Calm - N/A   Clear
2:55 AM 35.6 °F - 19.4 °F 52% 30.19 in 10.0 mi Calm Calm - N/A   Clear
3:15 AM 35.6 °F - 19.4 °F 52% 30.19 in 10.0 mi Calm Calm - N/A   Clear
3:35 AM 35.6 °F - 19.4 °F 52% 30.19 in 10.0 mi Calm Calm - N/A   Clear
3:55 AM 35.6 °F - 19.4 °F 52% 30.19 in 10.0 mi Calm Calm - N/A   Clear
4:15 AM 33.8 °F - 19.4 °F 56% 30.18 in 10.0 mi Calm Calm - N/A   Clear
4:35 AM 33.8 °F - 19.4 °F 56% 30.18 in 10.0 mi Calm Calm - N/A   Clear
4:55 AM 33.8 °F 27.0 °F 21.2 °F 60% 30.17 in 10.0 mi SSW 8.1 mph - N/A   Clear
5:15 AM 35.6 °F 30.7 °F 19.4 °F 52% 30.17 in 10.0 mi SW 5.8 mph - N/A   Clear
5:35 AM 33.8 °F 29.6 °F 19.4 °F 56% 30.17 in 10.0 mi SW 4.6 mph - N/A   Clear
5:55 AM 33.8 °F 30.8 °F 19.4 °F 56% 30.16 in 10.0 mi SW 3.5 mph - N/A   Clear
6:15 AM 33.8 °F - 19.4 °F 56% 30.17 in 10.0 mi Calm Calm - N/A   Clear
6:35 AM 33.8 °F 30.8 °F 19.4 °F 56% 30.17 in 10.0 mi SSW 3.5 mph - N/A   Clear
6:55 AM 32.0 °F 26.4 °F 21.2 °F 64% 30.17 in 10.0 mi SW 5.8 mph - N/A   Clear
7:15 AM 33.8 °F 29.6 °F 19.4 °F 56% 30.16 in 10.0 mi SSW 4.6 mph - N/A   Clear
7:35 AM 33.8 °F - 19.4 °F 56% 30.16 in 10.0 mi Calm Calm - N/A   Clear
7:55 AM 33.8 °F 29.6 °F 21.2 °F 60% 30.16 in 10.0 mi SSW 4.6 mph - N/A   Clear
8:15 AM 33.8 °F 30.8 °F 19.4 °F 56% 30.16 in 10.0 mi SW 3.5 mph - N/A   Clear
8:35 AM 35.6 °F 28.6 °F 21.2 °F 56% 30.17 in 10.0 mi SSW 9.2 mph - N/A   Clear
8:55 AM 35.6 °F 31.7 °F 21.2 °F 56% 30.17 in 10.0 mi SSW 4.6 mph - N/A   Clear
9:35 AM 41.0 °F 33.9 °F 19.4 °F 42% 30.16 in 10.0 mi SSW 12.7 mph - N/A   Clear
9:55 AM 42.8 °F 34.5 °F 17.6 °F 36% 30.16 in 10.0 mi South 18.4 mph 23.0 mph N/A   Clear
10:15 AM 44.6 °F 37.2 °F 17.6 °F 34% 30.15 in 10.0 mi South 17.3 mph 21.9 mph N/A   Clear
10:35 AM 46.4 °F 38.5 °F 17.6 °F 32% 30.14 in 10.0 mi South 21.9 mph 25.3 mph N/A   Clear
10:55 AM 48.2 °F - 17.6 °F 30% 30.14 in 10.0 mi South 21.9 mph 26.5 mph N/A   Clear
11:15 AM 50.0 °F - 17.6 °F 28% 30.13 in 10.0 mi South 19.6 mph 26.5 mph N/A   Clear
11:35 AM 51.8 °F - 19.4 °F 28% 30.13 in 10.0 mi South 19.6 mph 29.9 mph N/A   Clear
11:55 AM 51.8 °F - 17.6 °F 26% 30.13 in 10.0 mi South 20.7 mph 26.5 mph N/A   Clear
12:15 PM 53.6 °F - 19.4 °F 26% 30.12 in 10.0 mi SSW 20.7 mph 26.5 mph N/A   Clear
12:35 PM 53.6 °F - 19.4 °F 26% 30.11 in 10.0 mi SSW 21.9 mph 26.5 mph N/A   Clear
12:55 PM 53.6 °F - 19.4 °F 26% 30.10 in 10.0 mi SSW 23.0 mph 27.6 mph N/A   Clear
1:15 PM 55.4 °F - 19.4 °F 25% 30.09 in 10.0 mi South 19.6 mph 26.5 mph N/A   Clear
1:35 PM 55.4 °F - 17.6 °F 23% 30.07 in 10.0 mi South 23.0 mph 28.8 mph N/A   Clear
1:55 PM 55.4 °F - 17.6 °F 23% 30.05 in 10.0 mi South 19.6 mph 28.8 mph N/A   Clear
2:15 PM 55.4 °F - 19.4 °F 25% 30.04 in 10.0 mi South 20.7 mph 25.3 mph N/A   Clear
2:35 PM 59.0 °F - 19.4 °F 22% 30.03 in 10.0 mi SSW 18.4 mph 27.6 mph N/A   Clear
2:55 PM 59.0 °F - 19.4 °F 22% 30.02 in 10.0 mi SSW 18.4 mph 21.9 mph N/A   Clear
3:15 PM 60.8 °F - 21.2 °F 22% 30.01 in 10.0 mi South 17.3 mph 25.3 mph N/A   Clear
3:35 PM 60.8 °F - 21.2 °F 22% 29.99 in 10.0 mi SSW 19.6 mph 26.5 mph N/A   Clear
3:55 PM 60.8 °F - 21.2 °F 22% 29.98 in 10.0 mi South 18.4 mph 26.5 mph N/A   Clear
4:15 PM 60.8 °F - 21.2 °F 22% 29.98 in 10.0 mi South 17.3 mph 26.5 mph N/A   Clear
4:35 PM 60.8 °F - 21.2 °F 22% 29.98 in 10.0 mi South 17.3 mph 21.9 mph N/A   Clear
4:55 PM 60.8 °F - 21.2 °F 22% 29.98 in 10.0 mi South 18.4 mph 21.9 mph N/A   Clear
5:35 PM 59.0 °F - 21.2 °F 23% 29.97 in 10.0 mi South 19.6 mph 23.0 mph N/A   Clear
5:55 PM 59.0 °F - 21.2 °F 23% 29.97 in 10.0 mi South 13.8 mph - N/A   Clear
6:15 PM 57.2 °F - 21.2 °F 25% 29.97 in 10.0 mi South 15.0 mph 19.6 mph N/A   Clear
6:35 PM 55.4 °F - 21.2 °F 26% 29.97 in 10.0 mi South 13.8 mph - N/A   Clear
6:55 PM 53.6 °F - 21.2 °F 28% 29.97 in 10.0 mi SSE 10.4 mph - N/A   Clear
7:35 PM 51.8 °F - 23.0 °F 33% 29.97 in 10.0 mi SSE 11.5 mph - N/A   Clear
7:55 PM 51.8 °F - 23.0 °F 33% 29.97 in 10.0 mi SSE 10.4 mph - N/A   Clear
8:15 PM 50.0 °F - 23.0 °F 35% 29.97 in 10.0 mi SE 6.9 mph - N/A   Clear
8:35 PM 50.0 °F - 23.0 °F 35% 29.97 in 10.0 mi SE 10.4 mph - N/A   Clear
8:55 PM 50.0 °F - 23.0 °F 35% 29.96 in 10.0 mi SE 9.2 mph - N/A   Clear
9:15 PM 50.0 °F - 23.0 °F 35% 29.96 in 10.0 mi SSE 9.2 mph - N/A   Clear
9:35 PM 50.0 °F - 23.0 °F 35% 29.96 in 10.0 mi SSE 11.5 mph 18.4 mph N/A   Clear
9:55 PM 50.0 °F - 21.2 °F 32% 29.95 in 10.0 mi SSE 12.7 mph 19.6 mph N/A   Clear
10:15 PM 50.0 °F - 21.2 °F 32% 29.95 in 10.0 mi South 16.1 mph 21.9 mph N/A   Clear
10:35 PM 50.0 °F - 21.2 °F 32% 29.96 in 10.0 mi South 11.5 mph 24.2 mph N/A   Clear
10:55 PM 50.0 °F - 21.2 °F 32% 29.96 in 10.0 mi South 13.8 mph 19.6 mph N/A   Clear
11:15 PM 48.2 °F - 21.2 °F 34% 29.97 in 10.0 mi South 11.5 mph - N/A   Clear
11:35 PM 48.2 °F - 21.2 °F 34% 29.97 in 10.0 mi South 11.5 mph 18.4 mph N/A   Clear
11:55 PM 48.2 °F - 21.2 °F 34% 29.96 in 10.0 mi South 11.5 mph - N/A   Clear